Weather History for Pueblo, CO

Change the Weather History Date:

Thursday, November 22, 2012

  Actual Average Record
Temperature  
Mean Temperature 46 °F 36 °F  
Max Temperature 68 °F 53 °F 80 °F (2002)
Min Temperature 24 °F 20 °F -2 °F (1957)
Degree Days  
Heating Degree Days 19 29  
Month to date heating degree days 441 525  
Since 1 July heating degree days 931 1035  
Cooling Degree Days 0 0  
Month to date cooling degree days 0 0  
Year to date cooling degree days 1322 897  
Moisture  
Dew Point 11 °F    
Average Humidity 28    
Maximum Humidity 47    
Minimum Humidity 9    
Precipitation  
Precipitation 0.00 in 0.02 in 0.29 in (1986)
Month to date precipitation T 0.35  
Year to date precipitation 4.70 12.07  
Snow  
Snow 0.00 in 0.10 in 4.40 in (1991)
Month to date snowfall T 2.9  
Since 1 July snowfall 1.6 4.5  
Since 1 September snowfall 1.6 4.5  
Snow Depth 0.00 in    
Sea Level Pressure  
Sea Level Pressure 30.07 in    
Wind  
Wind Speed 9 mph (NNE)    
Max Wind Speed 26 mph    
Max Gust Speed 32 mph    
Visibility 10 miles    
Events      
T = Trace of Precipitation, MM = Missing Value Source: NWS Daily Summary

Daily Weather History Graph

Daily Weather History Graph

Search for Another Location

Airport:

Trip Planner

Search our weather history database for the weather conditions in past years. The results will help you decide how hot, cold, wet, or windy it might be!

Date:

Astronomy

Nov. 22, 2012 Rise Set
Actual Time 6:47 AM MST 4:40 PM MST
Civil Twilight 6:18 AM MST 5:09 PM MST
Nautical Twilight 5:46 AM MST 5:41 PM MST
Astronomical Twilight 5:14 AM MST 6:13 PM MST
Moon 1:23 PM MST (11/22) 1:13 AM MST (11/22)
Length of Visible Light 10h 50m
Length of Day
9h 53m
Waxing Gibbous, 72% of the Moon is Illuminated
Nov 22
Waxing Gibbous
Nov 28
Full
Dec 6
Last Quarter
Dec 13
New
Dec 19
First Quarter

Hourly Weather History & Observations

Time (MST) Temp. Windchill Dew Point Humidity Pressure Visibility Wind Dir Wind Speed Gust Speed Precip Events Conditions
12:53 AM 46.9 °F - 6.1 °F 19% 29.78 in 10.0 mi WNW 4.6 mph - N/A   Clear
1:53 AM 48.0 °F - 3.0 °F 16% 29.78 in 10.0 mi West 11.5 mph - N/A   Clear
2:53 AM 55.0 °F - 3.0 °F 12% 29.77 in 10.0 mi NW 18.4 mph - N/A   Clear
3:53 AM 54.0 °F - 3.0 °F 13% 29.79 in 10.0 mi NW 4.6 mph - N/A   Clear
4:53 AM 55.0 °F - 7.0 °F 15% 29.83 in 10.0 mi WNW 12.7 mph - N/A   Clear
5:53 AM 57.0 °F - 9.0 °F 15% 29.87 in 10.0 mi WNW 13.8 mph - N/A   Clear
6:53 AM 55.9 °F - 9.0 °F 15% 29.90 in 10.0 mi West 13.8 mph - N/A   Clear
7:53 AM 50.0 °F - 9.0 °F 19% 29.96 in 10.0 mi West 11.5 mph - N/A   Clear
8:53 AM 57.0 °F - 10.9 °F 16% 29.96 in 10.0 mi West 9.2 mph - N/A   Clear
9:53 AM 61.0 °F - 10.0 °F 13% 29.99 in 10.0 mi NE 9.2 mph - N/A   Clear
10:53 AM 62.1 °F - 8.1 °F 12% 30.00 in 10.0 mi SSE 5.8 mph - N/A   Clear
11:53 AM 64.9 °F - 8.1 °F 11% 29.98 in 10.0 mi East 5.8 mph - N/A   Clear
12:53 PM 66.0 °F - 8.1 °F 10% 29.97 in 10.0 mi SE 5.8 mph - N/A   Clear
1:53 PM 68.0 °F - 8.1 °F 10% 29.97 in 10.0 mi SE 10.4 mph - N/A   Clear
2:53 PM 62.1 °F - 19.9 °F 20% 29.99 in 10.0 mi East 19.6 mph - N/A   Clear
3:53 PM 57.0 °F - 25.0 °F 29% 30.07 in 10.0 mi East 19.6 mph 26.5 mph N/A   Clear
4:53 PM 51.8 °F - 24.8 °F 35% 30.22 in 10.0 mi ENE 15.0 mph - N/A   Clear
5:53 PM 45.0 °F 43.5 °F 21.0 °F 39% 30.25 in 10.0 mi NE 3.5 mph - N/A   Clear
6:53 PM 39.9 °F 35.1 °F 18.0 °F 41% 30.32 in 10.0 mi ENE 6.9 mph - N/A   Clear
7:53 PM 39.9 °F 36.7 °F 18.0 °F 41% 30.38 in 10.0 mi SE 4.6 mph - N/A   Clear
8:53 PM 30.9 °F - 12.0 °F 46% 30.42 in 10.0 mi Calm Calm - N/A   Clear
9:53 PM 28.9 °F - 10.9 °F 47% 30.43 in 10.0 mi Calm Calm - N/A   Clear
10:53 PM 27.0 °F - 9.0 °F 47% 30.45 in 10.0 mi Calm Calm - N/A   Clear
11:53 PM 25.0 °F - 9.0 °F 51% 30.46 in 10.0 mi Calm Calm - N/A   Clear